Time,TemperatureF,DewpointF,PressureIn,WindDirection,WindDirectionDegrees,WindSpeedMPH,WindSpeedGustMPH,Humidity,HourlyPrecipIn,Conditions,Clouds,dailyrainin,SolarRadiationWatts/m^2,SoftwareType,DateUTC
2013-08-22 00:01:00,51.3,46.9,29.84,West,259,0.0,0.0,85,0.00,,,0.00,0,Wunderground v.1.15,2013-08-22 06:01:00,
2013-08-22 00:10:00,50.9,46.6,29.84,West,259,0.0,0.0,85,0.00,,,0.00,0,Wunderground v.1.15,2013-08-22 06:10:00,
2013-08-22 00:20:00,50.3,46.3,29.84,West,259,0.0,0.0,86,0.00,,,0.00,0,Wunderground v.1.15,2013-08-22 06:20:00,
2013-08-22 00:31:00,50.1,46.1,29.85,West,259,0.0,0.0,86,0.00,,,0.00,0,Wunderground v.1.15,2013-08-22 06:31:00,
2013-08-22 00:40:00,50.3,46.6,29.84,NNW,331,2.0,2.0,87,0.00,,,0.00,0,Wunderground v.1.15,2013-08-22 06:40:00,
2013-08-22 01:00:00,49.9,46.2,29.83,NNW,331,0.0,0.0,87,0.00,,,0.00,0,Wunderground v.1.15,2013-08-22 07:00:00,
2013-08-22 01:10:00,49.6,45.9,29.84,NW,311,0.0,0.0,87,0.00,,,0.00,0,Wunderground v.1.15,2013-08-22 07:10:00,
2013-08-22 01:20:00,49.6,46.2,29.84,NW,311,0.0,0.0,88,0.00,,,0.00,0,Wunderground v.1.15,2013-08-22 07:20:00,
2013-08-22 01:30:00,49.7,46.3,29.84,NW,326,0.0,4.0,88,0.00,,,0.00,0,Wunderground v.1.15,2013-08-22 07:30:00,
2013-08-22 01:40:00,49.9,46.5,29.84,NW,319,2.0,2.0,88,0.00,,,0.00,0,Wunderground v.1.15,2013-08-22 07:40:00,
2013-08-22 01:50:00,49.4,46.0,29.83,NW,319,0.0,0.0,88,0.00,,,0.00,0,Wunderground v.1.15,2013-08-22 07:50:00,
2013-08-22 02:00:00,49.0,45.6,29.84,NW,319,0.0,0.0,88,0.00,,,0.00,0,Wunderground v.1.15,2013-08-22 08:00:00,
2013-08-22 02:10:00,48.9,45.8,29.84,NW,319,0.0,3.0,89,0.00,,,0.00,0,Wunderground v.1.15,2013-08-22 08:10:00,
2013-08-22 02:20:00,48.7,45.3,29.84,NW,319,1.0,1.0,88,0.00,,,0.00,0,Wunderground v.1.15,2013-08-22 08:20:00,
2013-08-22 02:31:00,48.3,44.9,29.84,NW,319,0.0,0.0,88,0.00,,,0.00,0,Wunderground v.1.15,2013-08-22 08:31:00,
2013-08-22 02:50:00,48.1,44.7,29.84,NW,318,2.0,3.0,88,0.00,,,0.00,0,Wunderground v.1.15,2013-08-22 08:50:00,
2013-08-22 03:00:00,48.0,44.6,29.84,NW,318,3.0,3.0,88,0.00,,,0.00,0,Wunderground v.1.15,2013-08-22 09:00:00,
2013-08-22 03:20:00,47.8,43.8,29.85,NW,318,0.0,0.0,86,0.00,,,0.00,0,Wunderground v.1.15,2013-08-22 09:20:00,
2013-08-22 03:30:00,48.0,43.7,29.86,NW,318,0.0,0.0,85,0.00,,,0.00,0,Wunderground v.1.15,2013-08-22 09:30:00,
2013-08-22 03:40:00,47.9,43.3,29.86,NW,318,0.0,0.0,84,0.00,,,0.00,0,Wunderground v.1.15,2013-08-22 09:40:00,
2013-08-22 03:50:00,48.1,43.5,29.85,NW,318,0.0,0.0,84,0.00,,,0.00,0,Wunderground v.1.15,2013-08-22 09:50:00,
2013-08-22 04:00:00,48.1,43.5,29.86,NW,318,0.0,0.0,84,0.00,,,0.00,0,Wunderground v.1.15,2013-08-22 10:00:00,
2013-08-22 04:10:00,47.9,43.3,29.86,NW,318,0.0,0.0,84,0.00,,,0.00,0,Wunderground v.1.15,2013-08-22 10:10:00,
2013-08-22 04:20:00,48.0,43.7,29.86,NW,318,0.0,0.0,85,0.00,,,0.00,0,Wunderground v.1.15,2013-08-22 10:20:00,
2013-08-22 04:40:00,48.4,43.2,29.87,NW,318,0.0,2.0,82,0.00,,,0.00,0,Wunderground v.1.15,2013-08-22 10:40:00,
2013-08-22 04:50:00,48.2,43.3,29.87,NW,318,2.0,2.0,83,0.00,,,0.00,0,Wunderground v.1.15,2013-08-22 10:50:00,
2013-08-22 06:30:00,50.1,43.8,29.89,West,265,2.0,2.0,79,0.00,,,0.00,25,Wunderground v.1.15,2013-08-22 12:30:00,
2013-08-22 06:40:00,50.8,44.9,29.89,WNW,286,2.0,2.0,80,0.00,,,0.00,33,Wunderground v.1.15,2013-08-22 12:40:00,
2013-08-22 06:51:00,51.3,45.3,29.90,West,277,0.0,0.0,80,0.00,,,0.00,49,Wunderground v.1.15,2013-08-22 12:51:00,
2013-08-22 07:00:00,52.4,45.7,29.92,East,81,2.0,6.0,78,0.00,,,0.00,65,Wunderground v.1.15,2013-08-22 13:00:00,
2013-08-22 07:11:00,53.4,46.0,29.92,WSW,253,2.0,2.0,76,0.00,,,0.00,72,Wunderground v.1.15,2013-08-22 13:11:00,
2013-08-22 07:20:00,54.7,47.3,29.92,NE,55,1.0,1.0,76,0.00,,,0.00,69,Wunderground v.1.15,2013-08-22 13:20:00,
2013-08-22 07:30:00,54.5,47.8,29.92,NW,321,0.0,1.0,78,0.00,,,0.00,104,Wunderground v.1.15,2013-08-22 13:30:00,
2013-08-22 07:40:00,55.0,47.2,29.92,WNW,288,3.0,3.0,75,0.00,,,0.00,151,Wunderground v.1.15,2013-08-22 13:40:00,
2013-08-22 07:50:00,56.3,49.2,29.92,WNW,287,0.0,0.0,77,0.00,,,0.00,241,Wunderground v.1.15,2013-08-22 13:50:00,
2013-08-22 08:10:00,60.3,51.2,29.92,SE,136,0.0,5.0,72,0.00,,,0.00,323,Wunderground v.1.15,2013-08-22 14:10:00,
2013-08-22 08:20:00,62.0,49.7,29.92,SE,136,2.0,2.0,64,0.00,,,0.00,267,Wunderground v.1.15,2013-08-22 14:20:00,
2013-08-22 08:40:00,64.1,49.9,29.91,SE,136,0.0,0.0,60,0.00,,,0.00,424,Wunderground v.1.15,2013-08-22 14:40:00,
2013-08-22 08:50:00,64.3,51.0,29.91,SE,136,0.0,0.0,62,0.00,,,0.00,427,Wunderground v.1.15,2013-08-22 14:50:00,
2013-08-22 09:00:00,65.1,50.4,29.91,SE,126,1.0,1.0,59,0.00,,,0.00,482,Wunderground v.1.15,2013-08-22 15:00:00,
2013-08-22 09:10:00,65.4,50.2,29.91,SE,130,1.0,4.0,58,0.00,,,0.00,547,Wunderground v.1.15,2013-08-22 15:10:00,
2013-08-22 09:20:00,66.3,50.6,29.91,SE,140,0.0,0.0,57,0.00,,,0.00,462,Wunderground v.1.15,2013-08-22 15:20:00,
2013-08-22 09:30:00,67.0,49.8,29.90,SE,130,1.0,4.0,54,0.00,,,0.00,475,Wunderground v.1.15,2013-08-22 15:30:00,
2013-08-22 09:40:00,67.4,50.2,29.91,East,86,1.0,1.0,54,0.00,,,0.00,547,Wunderground v.1.15,2013-08-22 15:40:00,
2013-08-22 10:00:00,69.3,49.9,29.91,ENE,72,2.0,2.0,50,0.00,,,0.00,666,Wunderground v.1.15,2013-08-22 16:00:00,
2013-08-22 10:10:00,70.9,50.2,29.90,SE,138,0.0,0.0,48,0.00,,,0.00,682,Wunderground v.1.15,2013-08-22 16:10:00,
2013-08-22 10:20:00,71.0,49.2,29.90,SE,133,4.0,5.0,46,0.00,,,0.00,715,Wunderground v.1.15,2013-08-22 16:20:00,
2013-08-22 10:30:00,72.6,50.6,29.90,ENE,74,5.0,5.0,46,0.00,,,0.00,729,Wunderground v.1.15,2013-08-22 16:30:00,
2013-08-22 10:40:00,72.9,50.9,29.90,NNE,32,5.0,5.0,46,0.00,,,0.00,622,Wunderground v.1.15,2013-08-22 16:40:00,
2013-08-22 10:50:00,72.6,51.2,29.90,ENE,72,6.0,6.0,47,0.00,,,0.00,754,Wunderground v.1.15,2013-08-22 16:50:00,
2013-08-22 11:10:00,72.7,50.7,29.90,East,80,4.0,9.0,46,0.00,,,0.00,276,Wunderground v.1.15,2013-08-22 17:10:00,
2013-08-22 11:20:00,72.1,50.2,29.89,ENE,59,5.0,8.0,46,0.00,,,0.00,991,Wunderground v.1.15,2013-08-22 17:20:00,
2013-08-22 11:31:00,74.3,50.4,29.89,NE,47,8.0,8.0,43,0.00,,,0.00,886,Wunderground v.1.15,2013-08-22 17:31:00,
2013-08-22 11:40:00,73.3,49.4,29.88,ESE,121,8.0,10.0,43,0.00,,,0.00,431,Wunderground v.1.15,2013-08-22 17:40:00,
2013-08-22 11:50:00,72.8,50.2,29.88,East,95,9.0,13.0,45,0.00,,,0.00,1030,Wunderground v.1.15,2013-08-22 17:50:00,
2013-08-22 12:00:00,75.1,49.8,29.88,NE,53,8.0,8.0,41,0.00,,,0.00,831,Wunderground v.1.15,2013-08-22 18:00:00,
2013-08-22 12:10:00,75.2,49.9,29.87,ENE,66,7.0,7.0,41,0.00,,,0.00,1160,Wunderground v.1.15,2013-08-22 18:10:00,
2013-08-22 12:20:00,74.6,45.9,29.87,NE,44,5.0,5.0,36,0.00,,,0.00,244,Wunderground v.1.15,2013-08-22 18:20:00,
2013-08-22 12:30:00,71.7,47.4,29.86,SE,142,3.0,3.0,42,0.00,,,0.00,178,Wunderground v.1.15,2013-08-22 18:30:00,
2013-08-22 12:41:00,70.5,51.0,29.86,East,87,3.0,7.0,50,0.00,,,0.00,232,Wunderground v.1.15,2013-08-22 18:41:00,
2013-08-22 12:51:00,71.0,48.6,29.86,East,81,2.0,8.0,45,0.00,,,0.00,243,Wunderground v.1.15,2013-08-22 18:51:00,
2013-08-22 13:00:00,70.8,47.2,29.86,ESE,107,7.0,7.0,43,0.00,,,0.00,192,Wunderground v.1.15,2013-08-22 19:00:00,
2013-08-22 13:11:00,70.3,51.3,29.86,East,89,2.0,2.0,51,0.00,,,0.00,156,Wunderground v.1.15,2013-08-22 19:11:00,
2013-08-22 13:20:00,69.2,52.3,29.85,SE,128,1.0,1.0,55,0.00,,,0.00,283,Wunderground v.1.15,2013-08-22 19:20:00,
2013-08-22 13:31:00,69.4,47.7,29.86,ESE,116,4.0,4.0,46,0.00,,,0.00,237,Wunderground v.1.15,2013-08-22 19:31:00,
2013-08-22 13:40:00,69.3,49.9,29.86,SE,143,2.0,2.0,50,0.00,,,0.00,237,Wunderground v.1.15,2013-08-22 19:40:00,
2013-08-22 13:50:00,69.0,51.7,29.86,SSE,158,1.0,1.0,54,0.00,,,0.00,123,Wunderground v.1.15,2013-08-22 19:50:00,
2013-08-22 14:00:00,68.0,52.2,29.86,SW,222,1.0,4.0,57,0.00,,,0.00,107,Wunderground v.1.15,2013-08-22 20:00:00,
2013-08-22 14:10:00,65.5,54.7,29.86,WSW,253,1.0,1.0,68,0.00,,,0.01,105,Wunderground v.1.15,2013-08-22 20:10:00,
2013-08-22 14:21:00,62.9,55.9,29.86,SW,236,1.0,1.0,78,0.00,,,0.01,83,Wunderground v.1.15,2013-08-22 20:21:00,
2013-08-22 14:30:00,61.6,52.9,29.86,WSW,247,2.0,3.0,73,0.00,,,0.01,56,Wunderground v.1.15,2013-08-22 20:30:00,
2013-08-22 14:40:00,61.3,54.4,29.86,WNW,286,2.0,2.0,78,0.00,,,0.01,83,Wunderground v.1.15,2013-08-22 20:40:00,
2013-08-22 14:50:00,61.2,53.9,29.86,NW,322,1.0,4.0,77,0.00,,,0.01,90,Wunderground v.1.15,2013-08-22 20:50:00,
2013-08-22 15:00:00,61.9,49.2,29.86,NNW,333,6.0,12.0,63,0.00,,,0.01,95,Wunderground v.1.15,2013-08-22 21:00:00,
2013-08-22 15:10:00,61.5,51.2,29.86,North,9,8.0,8.0,69,0.00,,,0.01,139,Wunderground v.1.15,2013-08-22 21:10:00,
2013-08-22 15:20:00,60.7,49.7,29.86,North,360,9.0,9.0,67,0.00,,,0.01,171,Wunderground v.1.15,2013-08-22 21:20:00,
2013-08-22 15:31:00,61.1,51.2,29.87,NNE,24,7.0,9.0,70,0.00,,,0.01,77,Wunderground v.1.15,2013-08-22 21:31:00,
2013-08-22 15:40:00,60.5,49.5,29.87,WNW,296,10.0,10.0,67,0.00,,,0.01,44,Wunderground v.1.15,2013-08-22 21:40:00,
2013-08-22 15:50:00,61.1,50.5,29.88,SSW,209,5.0,5.0,68,0.00,,,0.01,33,Wunderground v.1.15,2013-08-22 21:50:00,
2013-08-22 16:00:00,60.8,51.0,29.89,WSW,237,3.0,6.0,70,0.00,,,0.01,46,Wunderground v.1.15,2013-08-22 22:00:00,
2013-08-22 16:10:00,59.6,50.9,29.88,WSW,257,2.0,2.0,73,0.00,,,0.01,46,Wunderground v.1.15,2013-08-22 22:10:00,
2013-08-22 16:21:00,58.7,52.2,29.88,WSW,257,1.0,1.0,79,0.00,,,0.01,51,Wunderground v.1.15,2013-08-22 22:21:00,
2013-08-22 16:30:00,58.0,52.9,29.88,WSW,257,0.0,0.0,83,0.00,,,0.01,60,Wunderground v.1.15,2013-08-22 22:30:00,
2013-08-22 16:50:00,59.0,51.4,29.88,West,259,5.0,9.0,76,0.00,,,0.02,63,Wunderground v.1.15,2013-08-22 22:50:00,
2013-08-22 17:00:00,58.6,49.2,29.88,North,360,11.0,11.0,71,0.00,,,0.02,83,Wunderground v.1.15,2013-08-22 23:00:00,
2013-08-22 17:10:00,58.6,49.6,29.88,West,261,8.0,8.0,72,0.00,,,0.02,81,Wunderground v.1.15,2013-08-22 23:10:00,
2013-08-22 17:20:00,59.2,49.4,29.88,WSW,254,6.0,6.0,70,0.00,,,0.02,70,Wunderground v.1.15,2013-08-22 23:20:00,
2013-08-22 17:30:00,59.7,52.5,29.88,SE,139,4.0,7.0,77,0.00,,,0.02,98,Wunderground v.1.15,2013-08-22 23:30:00,
2013-08-22 17:40:00,59.0,50.7,29.88,SSW,208,4.0,4.0,74,0.00,,,0.02,76,Wunderground v.1.15,2013-08-22 23:40:00,
2013-08-22 18:00:00,59.3,52.8,29.87,SSW,207,1.0,1.0,79,0.00,,,0.02,128,Wunderground v.1.15,2013-08-23 00:00:00,
2013-08-22 18:10:00,59.2,53.4,29.87,North,355,1.0,2.0,81,0.00,,,0.02,111,Wunderground v.1.15,2013-08-23 00:10:00,
2013-08-22 18:21:00,59.6,53.8,29.87,North,9,3.0,3.0,81,0.00,,,0.02,121,Wunderground v.1.15,2013-08-23 00:21:00,
2013-08-22 18:30:00,60.1,53.2,29.86,NE,46,0.0,4.0,78,0.00,,,0.02,69,Wunderground v.1.15,2013-08-23 00:30:00,
2013-08-22 18:40:00,60.3,54.1,29.86,NNE,28,0.0,0.0,80,0.00,,,0.02,40,Wunderground v.1.15,2013-08-23 00:40:00,
2013-08-22 18:50:00,59.9,54.1,29.87,WSW,246,0.0,0.0,81,0.00,,,0.02,23,Wunderground v.1.15,2013-08-23 00:50:00,
2013-08-22 19:00:00,59.0,53.2,29.86,WSW,246,0.0,0.0,81,0.00,,,0.02,25,Wunderground v.1.15,2013-08-23 01:00:00,
2013-08-22 19:10:00,58.7,53.5,29.87,WSW,246,0.0,0.0,83,0.00,,,0.02,23,Wunderground v.1.15,2013-08-23 01:10:00,
2013-08-22 19:20:00,58.3,53.8,29.87,WSW,246,0.0,0.0,85,0.00,,,0.02,16,Wunderground v.1.15,2013-08-23 01:20:00,
2013-08-22 19:40:00,57.3,52.8,29.88,WSW,246,0.0,0.0,85,0.00,,,0.02,0,Wunderground v.1.15,2013-08-23 01:40:00,
2013-08-22 19:50:00,56.8,52.7,29.88,WSW,246,0.0,0.0,86,0.00,,,0.02,0,Wunderground v.1.15,2013-08-23 01:50:00,
2013-08-22 20:00:00,56.9,52.8,29.88,WSW,246,0.0,0.0,86,0.00,,,0.02,0,Wunderground v.1.15,2013-08-23 02:00:00,
2013-08-22 20:10:00,56.7,52.6,29.87,WSW,246,0.0,0.0,86,0.00,,,0.02,0,Wunderground v.1.15,2013-08-23 02:10:00,
2013-08-22 20:20:00,56.0,51.9,29.87,WSW,246,0.0,0.0,86,0.00,,,0.02,0,Wunderground v.1.15,2013-08-23 02:20:00,
2013-08-22 20:31:00,55.3,51.2,29.87,NW,306,1.0,2.0,86,0.00,,,0.02,0,Wunderground v.1.15,2013-08-23 02:31:00,
2013-08-22 20:40:00,54.6,50.2,29.87,NW,325,2.0,2.0,85,0.00,,,0.02,0,Wunderground v.1.15,2013-08-23 02:40:00,
2013-08-22 20:51:00,53.5,49.1,29.87,NW,325,0.0,0.0,85,0.00,,,0.02,0,Wunderground v.1.15,2013-08-23 02:51:00,
2013-08-22 21:00:00,52.5,48.4,29.88,NW,325,0.0,0.0,86,0.00,,,0.02,0,Wunderground v.1.15,2013-08-23 03:00:00,
2013-08-22 21:10:00,51.8,47.7,29.89,NW,325,0.0,3.0,86,0.00,,,0.02,0,Wunderground v.1.15,2013-08-23 03:10:00,
2013-08-22 21:20:00,50.9,46.9,29.90,WNW,303,3.0,4.0,86,0.00,,,0.02,0,Wunderground v.1.15,2013-08-23 03:20:00,
2013-08-22 21:30:00,50.1,46.7,29.90,WNW,300,3.0,3.0,88,0.00,,,0.02,0,Wunderground v.1.15,2013-08-23 03:30:00,
2013-08-22 21:50:00,50.3,46.9,29.90,WNW,300,2.0,2.0,88,0.00,,,0.02,0,Wunderground v.1.15,2013-08-23 03:50:00,
2013-08-22 22:00:00,50.0,46.6,29.91,WNW,300,2.0,2.0,88,0.00,,,0.02,0,Wunderground v.1.15,2013-08-23 04:00:00,
2013-08-22 22:10:00,49.7,46.3,29.91,WNW,300,0.0,0.0,88,0.00,,,0.02,0,Wunderground v.1.15,2013-08-23 04:10:00,
2013-08-22 22:20:00,49.6,46.2,29.91,WNW,300,1.0,1.0,88,0.00,,,0.02,0,Wunderground v.1.15,2013-08-23 04:20:00,
2013-08-22 22:31:00,49.5,45.5,29.92,ESE,119,0.0,0.0,86,0.00,,,0.02,0,Wunderground v.1.15,2013-08-23 04:31:00,
2013-08-22 22:40:00,49.1,45.7,29.92,WSW,256,0.0,3.0,88,0.00,,,0.02,0,Wunderground v.1.15,2013-08-23 04:40:00,
2013-08-22 22:50:00,48.8,45.7,29.93,WSW,257,4.0,4.0,89,0.00,,,0.02,0,Wunderground v.1.15,2013-08-23 04:50:00,
2013-08-22 23:11:00,48.8,45.7,29.94,South,169,0.0,0.0,89,0.00,,,0.02,0,Wunderground v.1.15,2013-08-23 05:11:00,
2013-08-22 23:21:00,49.0,46.2,29.94,SSW,208,0.0,3.0,90,0.00,,,0.02,0,Wunderground v.1.15,2013-08-23 05:21:00,
2013-08-22 23:30:00,49.3,46.5,29.95,SW,215,1.0,1.0,90,0.00,,,0.02,0,Wunderground v.1.15,2013-08-23 05:30:00,
2013-08-22 23:40:00,49.8,47.0,29.95,SW,215,0.0,0.0,90,0.00,,,0.02,0,Wunderground v.1.15,2013-08-23 05:40:00,
2013-08-22 23:50:00,50.5,47.4,29.94,WNW,298,1.0,1.0,89,0.00,,,0.02,0,Wunderground v.1.15,2013-08-23 05:50:00,